Location: Goettingen
(51.5300°N, 9.9433°E)
Time: 00:45:17
(UTC+02:00)

ISS - Pass Details

Date: 24 May 2017
Orbit: 402 x 408 km, 51.6° (Epoch: 30 May)

Event Time Altitude Azimuth Distance (km) Brightness Sun altitude
Rises 01:55:49 0° 272° (W) 2,332 0.0 -17.2°
Reaches altitude 10° 01:57:54 10° 273° (W) 1,470 -1.1 -17.2°
Maximum altitude 02:01:12 86° 1° (N) 413 -3.9 -17.1°
Drops below altitude 10° 02:04:29 10° 92° (E) 1,465 -0.9 -17.0°
Sets 02:06:34 0° 93° (E) 2,324 0.1 -16.9°
